Simultaneous Nadir Overpasses (SNOs) Predictions

Prediction of SNOs between FY3D and NOAA-19 Satellite Orbit:

Table of predicted SNOs for the next 14.0 days since TLE Epoch: 12/9/2023
Index Date (FY3D) Time (FY3D) Lat,Lon (FY3D) SZA (FY3D ) Date (NOAA-19) Time (NOAA-19) Lat,Lon (NOAA-19) SZA (NOAA-19 ) Distance(km) Time Diff (sec)
1 12/11/2023 00:04:09 -76.08, -5.54 81.03 12/11/2023 00:02:57 -76.04, -6.89 81.05 36.27 72
2 12/11/2023 00:55:00 76.27, 161.09 99.17 12/11/2023 00:53:51 76.26, 161.19 99.17 2.61 69
3 12/11/2023 01:45:44 -76.26, -31.54 80.84 12/11/2023 01:44:51 -76.24, -31.63 80.85 2.66 53
4 12/11/2023 02:36:31 76.26, 135.74 99.17 12/11/2023 02:35:49 76.29, 135.79 99.20 2.96 42
5 12/11/2023 03:27:16 -76.29, -57.06 80.80 12/11/2023 03:26:49 -76.27, -57.02 80.82 2.91 27
6 12/11/2023 04:18:03 76.30, 110.22 99.22 12/11/2023 04:17:48 76.27, 110.22 99.19 3.67 15
7 12/11/2023 05:08:47 -76.29, -82.41 80.80 12/11/2023 05:08:47 -76.30, -82.42 80.79 0.90 0
8 12/11/2023 05:59:34 76.29, 84.87 99.22 12/11/2023 05:59:46 76.29, 84.83 99.22 1.19 12
9 12/11/2023 06:50:19 -76.32,-107.93 80.75 12/11/2023 06:50:45 -76.32,-107.81 80.76 3.07 26
10 12/11/2023 07:41:06 76.33, 59.35 99.26 12/11/2023 07:41:44 76.32, 59.43 99.25 2.53 38
11 12/11/2023 08:31:50 -76.32,-133.28 80.75 12/11/2023 08:32:44 -76.30,-133.38 80.77 3.00 54
12 12/11/2023 09:22:37 76.32, 34.00 99.26 12/11/2023 09:23:42 76.34, 34.03 99.28 2.16 65
13 12/11/2023 10:13:27 -76.58,-159.64 80.47 12/11/2023 10:14:37 -76.54,-157.92 80.53 44.71 70



Historial Predications of SNOs between FY3D and NOAA-19
